Location: Harwich
(41.7160°N, 69.9939°W)
Time: 13:57:25
(UTC+01:00)

A-11 Canister half - Pass Details

Date: 07 December 2023
Orbit: 1526 x 1682 km, 47.3° (Epoch: 01 March)

Event Time Altitude Azimuth Distance (km) Brightness Sun altitude
Rises 02:42:24 0° 271° (W) 4,933 12.3 -50.0°
Reaches altitude 10° 02:45:39 10° 274° (W) 3,943 11.6 -50.6°
Enters shadow 02:51:09 36° 288° (WNW) 2,426 10.1 -51.6°
Maximum altitude 02:55:44 64° 356° (N) 1,809 - -52.4°
Drops below altitude 10° 03:05:37 10° 77° (ENE) 3,867 - -54.1°
Sets 03:08:46 0° 81° (E) 4,833 - -54.7°
